Location: Roanoke
(37.2710°N, 79.9420°W)
Time: 18:47:45
(UTC-04:00)

Cosmos 1441 Rocket - Visible Passes

Search period start: 28 June 2017 00:00
Search period end: 08 July 2017 00:00
Orbit: 499 x 543 km, 81.1° (Epoch: 27 June)

Date Brightness Start Highest point End Pass type
(mag) Time Alt. Az. Time Alt. Az. Time Alt. Az.
28 Jun 5.5 03:21:47 10° NNE 03:24:58 22° ENE 03:27:48 12° ESE visible
28 Jun 4.7 04:57:45 10° NW 05:00:49 21° W 05:02:52 15° SW visible
29 Jun 5.7 03:08:35 10° NNE 03:11:34 20° ENE 03:13:52 13° ESE visible
29 Jun 4.5 04:44:12 10° NW 04:47:28 24° W 04:48:56 20° SW visible
30 Jun 5.8 02:55:25 10° NNE 02:58:08 17° ENE 02:59:59 13° ESE visible
30 Jun 4.3 04:30:42 10° NNW 04:34:08 28° W 04:35:04 25° WSW visible
01 Jul 5.8 02:42:18 10° NE 02:44:44 15° ENE 02:46:11 13° E visible
01 Jul 4.1 04:17:13 10° NNW 04:20:47 32° W 04:21:16 31° WSW visible
02 Jul 5.9 02:29:16 10° NE 02:31:18 14° ENE 02:32:26 12° E visible
02 Jul 3.9 04:03:45 10° NNW 04:07:26 36° W 04:07:31 36° W visible
03 Jul 6.0 02:16:20 10° NE 02:17:52 12° ENE 02:18:43 11° E visible
03 Jul 3.8 03:50:18 10° NNW 03:53:48 41° W 03:53:48 41° W visible
04 Jul 6.2 02:03:49 10° ENE 02:04:26 10° ENE 02:05:03 10° ENE visible
04 Jul 3.8 03:36:51 10° NNW 03:40:08 44° WNW 03:40:08 44° WNW visible
05 Jul 3.9 03:23:26 10° NNW 03:26:30 45° NW 03:26:30 45° NW visible
06 Jul 4.1 03:10:02 10° NNW 03:12:54 44° NNW 03:12:54 44° NNW visible
07 Jul 4.3 02:56:38 10° NNW 02:59:19 41° NNW 02:59:19 41° NNW visible
